TimeCDT,TemperatureF,Dew PointF,Humidity,Sea Level PressureIn,VisibilityMPH,Wind Direction,Wind SpeedMPH,Gust SpeedMPH,PrecipitationIn,Events,Conditions,WindDirDegrees,DateUTC
12:13 AM,51.8,26.6,38,30.06,10.0,SE,9.2,-,N/A,,Clear,140,2012-04-07 05:13:00
12:33 AM,51.8,26.6,38,30.06,10.0,SE,9.2,-,N/A,,Clear,140,2012-04-07 05:33:00
12:53 AM,51.8,28.4,41,30.08,10.0,SSE,6.9,-,N/A,,Clear,150,2012-04-07 05:53:00
1:12 AM,51.8,28.4,41,30.08,10.0,SSE,6.9,-,N/A,,Clear,150,2012-04-07 06:12:00
1:33 AM,51.8,28.4,41,30.07,10.0,SSE,9.2,-,N/A,,Clear,150,2012-04-07 06:33:00
2:13 AM,48.2,28.4,46,30.05,10.0,SE,9.2,-,N/A,,Clear,140,2012-04-07 07:13:00
2:33 AM,48.2,28.4,46,30.04,10.0,SE,9.2,-,N/A,,Clear,140,2012-04-07 07:33:00
2:53 AM,48.2,28.4,46,30.03,10.0,SE,9.2,-,N/A,,Scattered Clouds,140,2012-04-07 07:53:00
3:13 AM,48.2,28.4,46,30.02,10.0,SSE,10.4,-,N/A,,Mostly Cloudy,150,2012-04-07 08:13:00
3:33 AM,50.0,30.2,47,30.01,10.0,SSE,11.5,17.3,N/A,,Mostly Cloudy,150,2012-04-07 08:33:00
3:53 AM,50.0,30.2,47,30.01,10.0,SSE,9.2,18.4,N/A,,Overcast,150,2012-04-07 08:53:00
4:13 AM,50.0,30.2,47,30.01,10.0,SSE,8.1,-,N/A,,Overcast,150,2012-04-07 09:13:00
4:33 AM,50.0,30.2,47,30.00,10.0,SSE,9.2,-,N/A,,Overcast,150,2012-04-07 09:33:00
4:53 AM,50.0,32.0,50,29.99,10.0,SSE,10.4,18.4,N/A,,Overcast,150,2012-04-07 09:53:00
5:13 AM,50.0,32.0,50,29.99,10.0,SSE,6.9,19.6,N/A,,Overcast,160,2012-04-07 10:13:00
5:33 AM,50.0,32.0,50,29.98,10.0,SSE,6.9,-,N/A,,Overcast,160,2012-04-07 10:33:00
5:53 AM,50.0,33.8,54,29.98,10.0,SSE,8.1,-,N/A,,Overcast,160,2012-04-07 10:53:00
6:13 AM,50.0,33.8,54,29.98,10.0,SSE,8.1,-,N/A,,Overcast,160,2012-04-07 11:13:00
6:33 AM,50.0,33.8,54,29.98,10.0,SSE,8.1,-,N/A,,Overcast,160,2012-04-07 11:33:00
6:53 AM,50.0,33.8,54,29.97,10.0,South,5.8,-,N/A,,Overcast,170,2012-04-07 11:53:00
7:13 AM,50.0,33.8,54,29.97,10.0,SSE,4.6,-,N/A,,Overcast,160,2012-04-07 12:13:00
7:33 AM,50.0,35.6,58,29.97,10.0,South,4.6,-,N/A,,Overcast,170,2012-04-07 12:33:00
7:53 AM,50.0,35.6,58,29.98,10.0,South,5.8,-,N/A,,Overcast,180,2012-04-07 12:53:00
8:13 AM,50.0,35.6,58,29.99,10.0,South,4.6,-,N/A,,Overcast,190,2012-04-07 13:13:00
8:33 AM,46.4,44.6,93,30.00,4.0,SSW,5.8,-,N/A,,Drizzle,200,2012-04-07 13:33:00
8:53 AM,46.4,44.6,93,30.00,5.0,South,6.9,-,N/A,,Light Drizzle,180,2012-04-07 13:53:00
9:13 AM,46.4,44.6,93,30.00,3.0,South,5.8,-,N/A,,Light Drizzle,180,2012-04-07 14:13:00
9:33 AM,46.4,46.4,100,30.01,2.5,South,4.6,-,N/A,,Drizzle,190,2012-04-07 14:33:00
9:53 AM,46.4,46.4,100,30.00,4.0,SSE,5.8,-,N/A,,Overcast,150,2012-04-07 14:53:00
10:13 AM,46.4,46.4,100,30.00,4.0,South,4.6,-,N/A,Rain,Rain,190,2012-04-07 15:13:00
10:33 AM,46.4,46.4,100,30.01,3.0,SSW,5.8,-,N/A,,Overcast,200,2012-04-07 15:33:00
10:52 AM,46.4,46.4,100,30.01,7.0,South,4.6,-,N/A,,Overcast,170,2012-04-07 15:52:00
11:33 AM,48.2,44.6,87,30.01,10.0,WNW,13.8,23.0,N/A,,Overcast,290,2012-04-07 16:33:00
11:52 AM,50.0,42.8,76,30.02,10.0,West,9.2,-,N/A,,Overcast,280,2012-04-07 16:52:00
12:13 PM,50.0,41.0,71,30.02,10.0,WNW,9.2,19.6,N/A,,Overcast,290,2012-04-07 17:13:00
12:33 PM,51.8,41.0,67,30.03,10.0,WSW,10.4,16.1,N/A,,Overcast,250,2012-04-07 17:33:00
12:52 PM,53.6,37.4,54,30.03,10.0,West,11.5,20.7,N/A,,Overcast,270,2012-04-07 17:52:00
1:13 PM,55.4,33.8,44,30.03,10.0,West,17.3,24.2,N/A,,Scattered Clouds,270,2012-04-07 18:13:00
1:33 PM,55.4,32.0,41,30.03,10.0,WNW,15.0,25.3,N/A,,Clear,290,2012-04-07 18:33:00
1:53 PM,53.6,30.2,41,30.04,10.0,WNW,15.0,26.5,N/A,,Clear,290,2012-04-07 18:53:00
2:13 PM,55.4,30.2,38,30.04,10.0,West,18.4,25.3,N/A,,Clear,280,2012-04-07 19:13:00
2:32 PM,55.4,30.2,38,30.04,10.0,West,19.6,26.5,N/A,,Scattered Clouds,280,2012-04-07 19:32:00
2:53 PM,55.4,28.4,36,30.05,10.0,WNW,23.0,29.9,N/A,,Scattered Clouds,290,2012-04-07 19:53:00
3:13 PM,55.4,30.2,38,30.06,10.0,WNW,20.7,29.9,N/A,,Scattered Clouds,290,2012-04-07 20:13:00
3:53 PM,53.6,26.6,35,30.07,10.0,WNW,24.2,36.8,N/A,,Mostly Cloudy,290,2012-04-07 20:53:00
4:13 PM,51.8,26.6,38,30.08,10.0,WNW,18.4,27.6,N/A,,Overcast,300,2012-04-07 21:13:00
4:32 PM,51.8,26.6,38,30.08,10.0,WNW,24.2,31.1,N/A,,Overcast,300,2012-04-07 21:32:00
4:53 PM,51.8,26.6,38,30.09,10.0,West,21.9,26.5,N/A,,Overcast,280,2012-04-07 21:53:00
5:13 PM,53.6,26.6,35,30.10,10.0,WNW,17.3,31.1,N/A,,Overcast,290,2012-04-07 22:13:00
5:32 PM,51.8,24.8,35,30.10,10.0,WNW,13.8,25.3,N/A,,Mostly Cloudy,300,2012-04-07 22:32:00
5:53 PM,51.8,26.6,38,30.10,10.0,WNW,12.7,18.4,N/A,,Overcast,300,2012-04-07 22:53:00
6:13 PM,53.6,24.8,33,30.09,10.0,WNW,13.8,19.6,N/A,,Overcast,300,2012-04-07 23:13:00
6:32 PM,53.6,23.0,30,30.09,10.0,WNW,19.6,27.6,N/A,,Overcast,290,2012-04-07 23:32:00
6:53 PM,53.6,21.2,28,30.10,10.0,West,17.3,26.5,N/A,,Scattered Clouds,280,2012-04-07 23:53:00
7:13 PM,53.6,21.2,28,30.11,10.0,WNW,13.8,25.3,N/A,,Scattered Clouds,290,2012-04-08 00:13:00
7:32 PM,51.8,23.0,33,30.11,10.0,WNW,12.7,20.7,N/A,,Scattered Clouds,290,2012-04-08 00:32:00
7:53 PM,51.8,21.2,30,30.11,10.0,WNW,18.4,26.5,N/A,,Clear,290,2012-04-08 00:53:00
8:13 PM,50.0,21.2,32,30.13,10.0,WNW,13.8,20.7,N/A,,Clear,290,2012-04-08 01:13:00
8:33 PM,50.0,21.2,32,30.14,10.0,WNW,10.4,17.3,N/A,,Clear,290,2012-04-08 01:33:00
8:53 PM,48.2,23.0,37,30.14,10.0,West,8.1,-,N/A,,Clear,280,2012-04-08 01:53:00
9:13 PM,48.2,21.2,34,30.15,10.0,West,8.1,-,N/A,,Clear,270,2012-04-08 02:13:00
9:32 PM,48.2,21.2,34,30.16,10.0,West,8.1,-,N/A,,Clear,270,2012-04-08 02:32:00
9:53 PM,46.4,21.2,37,30.16,10.0,West,9.2,-,N/A,,Clear,270,2012-04-08 02:53:00
10:13 PM,46.4,21.2,37,30.17,10.0,West,9.2,-,N/A,,Clear,270,2012-04-08 03:13:00
10:33 PM,46.4,21.2,37,30.18,10.0,West,9.2,-,N/A,,Clear,280,2012-04-08 03:33:00
10:53 PM,44.6,21.2,39,30.19,10.0,West,6.9,-,N/A,,Clear,280,2012-04-08 03:53:00
11:12 PM,44.6,21.2,39,30.19,10.0,West,5.8,-,N/A,,Clear,270,2012-04-08 04:12:00
11:33 PM,44.6,21.2,39,30.19,10.0,West,5.8,-,N/A,,Clear,270,2012-04-08 04:33:00
11:53 PM,42.8,21.2,42,30.19,10.0,West,4.6,-,N/A,,Clear,270,2012-04-08 04:53:00